RH
32 28 31 38 30 29 26 23 23 25 31 31 31 31 30 29 26 22 21 25 28 28 28 24 22 22 27 36 32 17 16 17 20 23 27 34 34 29 26 25 19 19 16 10 7 8 11
30 38 38 34 30 29 24 24 26 29 32 33 32 30 29 28 24 24 24 28 30 30 23 23 21 19 28 41 25 18 15 19 27 25 26 31 34 29 22 21 26 14 12 10 9 9 9
37 38 35 32 30 25 25 27 28 31 32 32 30 30 30 28 28 28 29 30 29 25 28 20 19 20 35 36 21 19 17 16 20 25 27 21 22 25 25 22 20 15 17 15 15 15 15
39 36 37 32 27 25 28 32 32 32 30 31 29 31 31 30 31 35 31 29 25 28 24 18 17 17 33 23 17 14 15 15 15 19 18 14 15 23 29 19 14 17 24 30 25 21 19
43 38 34 30 26 29 32 34 33 30 28 28 27 35 38 34 32 28 26 25 26 23 19 16 15 23 34 12 12 14 13 18 14 13 12 11 15 19 16 17 23 22 33 34 32 23 21
40 35 34 28 28 31 32 32 33 28 35 34 33 28 35 24 22 24 25 26 23 20 19 17 22 32 19 18 15 13 13 15 18 19 18 18 21 24 22 33 40 35 24 27 24 22 16
40 37 31 29 32 34 33 34 32 36 35 28 29 22 22 23 25 26 25 23 22 22 24 30 22 26 18 14 13 16 15 17 20 23 28 19 31 40 34 26 27 28 24 24 31 22 20
40 36 32 32 36 35 35 36 31 31 31 25 25 24 22 25 25 24 28 40 37 27 25 23 20 19 15 17 16 15 15 19 19 28 28 20 31 35 31 17 19 26 23 28 27 22 18
41 35 35 36 39 37 37 35 30 29 28 26 24 23 25 25 25 25 38 41 29 20 21 18 19 15 14 17 17 14 14 18 22 29 20 31 29 15 14 20 19 27 23 29 26 23 20
40 37 38 40 40 38 36 33 31 30 28 28 27 26 25 24 25 27 35 22 20 22 21 14 15 13 13 15 14 13 13 17 18 23 22 24 22 18 21 23 21 26 27 27 21 23 31
41 40 41 41 40 38 34 32 31 28 29 30 30 27 26 26 33 28 28 18 21 28 36 17 16 16 14 19 17 14 10 12 21 20 21 29 25 26 28 27 22 26 25 22 23 26 27
44 44 45 43 40 38 32 30 29 28 28 31 29 26 26 28 27 30 22 17 17 46 41 17 16 19 17 16 17 17 15 17 18 19 24 25 22 23 25 23 23 21 26 27 29 29 41
46 48 47 44 38 35 30 28 27 28 28 29 28 27 26 27 31 22 18 17 26 45 20 19 19 20 21 20 20 21 22 23 31 31 30 27 28 26 23 30 33 33 36 50 68 60 57
48 50 49 44 36 33 27 25 25 27 27 27 27 26 23 23 26 20 18 28 40 29 22 19 20 22 24 22 21 23 26 25 24 29 35 41 48 32 29 30 33 34 34 52 53 63 59
52 53 52 44 36 33 27 23 22 24 26 25 24 23 23 20 19 19 26 38 34 23 24 21 22 27 25 23 25 27 33 29 26 28 37 35 40 28 29 29 29 37 46 31 37 49 46
55 54 54 44 38 35 29 24 22 21 23 23 22 21 24 19 18 19 33 39 38 25 20 22 24 26 29 26 28 35 33 30 30 30 30 29 40 28 25 31 40 33 30 43 58 59 47
59 55 53 44 41 38 32 27 24 20 20 21 24 25 27 19 17 24 34 39 29 21 21 25 30 27 39 33 36 38 38 34 33 28 29 27 31 33 31 34 29 36 43 41 40 48 54
62 56 52 45 44 42 35 30 27 21 20 20 22 32 30 17 22 24 34 33 26 19 21 26 30 34 38 33 39 39 38 38 31 30 30 24 28 34 28 27 28 30 36 39 53 48 56
63 57 52 47 46 44 39 33 30 22 20 21 30 50 30 17 31 36 37 31 26 22 23 28 32 35 37 39 41 39 38 35 32 30 36 25 32 38 37 40 38 33 37 39 45 51 52
65 60 53 47 47 46 43 38 33 25 24 29 49 46 27 22 45 31 32 28 28 28 31 32 36 36 36 40 37 37 38 36 30 28 22 28 29 27 32 30 29 30 31 36 43 60 56
64 60 55 49 46 48 47 42 37 32 32 41 52 40 24 24 34 34 29 30 31 31 32 33 37 36 38 39 38 38 37 32 29 23 26 28 31 28 26 25 28 31 33 37 42 46 54
64 60 54 51 46 47 48 47 42 40 39 38 51 49 32 39 24 32 36 33 33 34 35 35 38 40 41 39 36 39 34 30 31 28 32 29 35 32 28 28 30 31 34 38 42 46 50
65 62 56 50 47 45 47 48 46 44 45 46 44 39 37 34 35 39 37 35 37 38 38 41 42 43 43 39 37 35 32 31 30 33 33 34 35 35 40 36 37 55 47 42 47 52 56
66 64 59 53 47 44 44 47 48 45 45 46 40 40 42 39 36 36 37 39 40 40 39 42 43 42 41 37 32 29 26 28 28 30 31 37 35 44 49 48 54 42 39 43 49 52 55
67 64 62 56 49 44 42 41 44 46 43 39 38 41 40 42 37 40 38 41 44 42 46 46 44 40 36 36 35 30 33 29 30 28 30 36 41 50 55 50 39 40 46 47 51 53 58
68 65 64 61 55 46 41 39 38 39 40 38 36 39 41 41 45 42 43 45 46 49 50 50 45 40 37 39 36 37 40 29 36 34 34 37 45 49 55 62 55 45 51 52 52 61 67
68 68 66 64 59 51 45 40 38 37 39 39 37 37 43 48 46 48 52 51 52 52 53 47 43 39 38 40 40 43 35 25 33 40 47 47 51 56 57 58 52 46 51 54 62 75 77
68 69 67 65 60 51 45 40 39 40 38 38 37 37 40 43 46 51 53 57 53 53 59 49 44 42 41 44 42 40 43 40 36 33 43 46 54 57 56 63 64 55 59 72 72 77 84
70 67 67 64 59 54 49 45 42 38 39 40 39 36 35 39 42 45 48 51 49 47 50 44 39 37 36 39 40 41 43 47 46 41 33 46 44 51 52 55 59 69 71 74 80 84 87